Year,Month,Day,Hour,Minute,Value (Times are PST for windgust in km/hr)
2008,10,08,00,00,4.80
2008,10,08,00,01,4.80
2008,10,08,00,02,8.10
2008,10,08,00,03,11.30
2008,10,08,00,04,12.90
2008,10,08,00,05,4.80
2008,10,08,00,06,6.40
2008,10,08,00,07,8.10
2008,10,08,00,08,8.10
2008,10,08,00,09,8.10
2008,10,08,00,10,8.10
2008,10,08,00,11,8.10
2008,10,08,00,12,6.40
2008,10,08,00,13,8.10
2008,10,08,00,14,3.20
2008,10,08,00,15,3.20
2008,10,08,00,16,4.80
2008,10,08,00,17,1.60
2008,10,08,00,18,6.40
2008,10,08,00,19,12.90
2008,10,08,00,20,14.50
2008,10,08,00,21,9.60
2008,10,08,00,22,4.80
2008,10,08,00,23,3.20
2008,10,08,00,24,16.10
2008,10,08,00,25,6.40
2008,10,08,00,26,4.80
2008,10,08,00,27,8.10
2008,10,08,00,28,8.10
2008,10,08,00,29,6.40
2008,10,08,00,30,6.40
2008,10,08,00,31,12.90
2008,10,08,00,32,6.40
2008,10,08,00,33,4.80
2008,10,08,00,34,4.80
2008,10,08,00,35,0.00
2008,10,08,00,36,1.60
2008,10,08,00,37,1.60
2008,10,08,00,38,3.20
2008,10,08,00,39,4.80
2008,10,08,00,40,4.80
2008,10,08,00,41,8.10
2008,10,08,00,42,6.40
2008,10,08,00,43,6.40
2008,10,08,00,44,1.60
2008,10,08,00,45,8.10
2008,10,08,00,46,6.40
2008,10,08,00,47,8.10
2008,10,08,00,48,4.80
2008,10,08,00,49,8.10
2008,10,08,00,50,3.20
2008,10,08,00,51,6.40
2008,10,08,00,52,4.80
2008,10,08,00,53,6.40
2008,10,08,00,54,3.20
2008,10,08,00,55,1.60
2008,10,08,00,56,4.80
2008,10,08,00,57,6.40
2008,10,08,00,58,6.40
2008,10,08,00,59,1.60
2008,10,08,01,00,6.40
2008,10,08,01,01,11.30
2008,10,08,01,02,14.50
2008,10,08,01,03,11.30
2008,10,08,01,04,9.60
2008,10,08,01,05,6.40
2008,10,08,01,06,8.10
2008,10,08,01,07,8.10
2008,10,08,01,08,8.10
2008,10,08,01,09,4.80
2008,10,08,01,10,8.10
2008,10,08,01,11,11.30
2008,10,08,01,12,11.30
2008,10,08,01,13,6.40
2008,10,08,01,14,6.40
2008,10,08,01,15,9.60
2008,10,08,01,16,3.20
2008,10,08,01,17,6.40
2008,10,08,01,18,8.10
2008,10,08,01,19,6.40
2008,10,08,01,20,6.40
2008,10,08,01,21,6.40
2008,10,08,01,22,6.40
2008,10,08,01,23,3.20
2008,10,08,01,24,4.80
2008,10,08,01,25,4.80
2008,10,08,01,26,6.40
2008,10,08,01,27,4.80
2008,10,08,01,28,6.40
2008,10,08,01,29,9.60
2008,10,08,01,30,3.20
2008,10,08,01,31,1.60
2008,10,08,01,32,4.80
2008,10,08,01,33,1.60
2008,10,08,01,34,0.00
2008,10,08,01,35,1.60
2008,10,08,01,36,0.00
2008,10,08,01,37,1.60
2008,10,08,01,38,3.20
2008,10,08,01,39,1.60
2008,10,08,01,40,0.00
2008,10,08,01,41,1.60
2008,10,08,01,42,0.00
2008,10,08,01,43,0.00
2008,10,08,01,44,0.00
2008,10,08,01,45,0.00
2008,10,08,01,46,0.00
2008,10,08,01,47,0.00
2008,10,08,01,48,0.00
2008,10,08,01,49,3.20
2008,10,08,01,50,4.80
2008,10,08,01,51,0.00
2008,10,08,01,52,1.60
2008,10,08,01,53,0.00
2008,10,08,01,54,1.60
2008,10,08,01,55,3.20
2008,10,08,01,56,1.60
2008,10,08,01,57,3.20
2008,10,08,01,58,0.00
2008,10,08,01,59,0.00
2008,10,08,02,00,0.00
2008,10,08,02,01,0.00
2008,10,08,02,02,0.00
2008,10,08,02,03,4.80
2008,10,08,02,04,4.80
2008,10,08,02,05,0.00
2008,10,08,02,06,1.60
2008,10,08,02,07,0.00
2008,10,08,02,08,4.80
2008,10,08,02,09,3.20
2008,10,08,02,10,4.80
2008,10,08,02,11,0.00
2008,10,08,02,12,1.60
2008,10,08,02,13,6.40
2008,10,08,02,14,4.80
2008,10,08,02,15,4.80
2008,10,08,02,16,0.00
2008,10,08,02,17,1.60
2008,10,08,02,18,3.20
2008,10,08,02,19,1.60
2008,10,08,02,20,0.00
2008,10,08,02,21,3.20
2008,10,08,02,22,4.80
2008,10,08,02,23,3.20
2008,10,08,02,24,0.00
2008,10,08,02,25,1.60
2008,10,08,02,26,4.80
2008,10,08,02,27,3.20
2008,10,08,02,28,4.80
2008,10,08,02,29,4.80
2008,10,08,02,30,1.60
2008,10,08,02,31,1.60
2008,10,08,02,32,0.00
2008,10,08,02,33,0.00
2008,10,08,02,34,1.60
2008,10,08,02,35,3.20
2008,10,08,02,36,3.20
2008,10,08,02,37,0.00
2008,10,08,02,38,1.60
2008,10,08,02,39,1.60
2008,10,08,02,40,3.20
2008,10,08,02,41,1.60
2008,10,08,02,42,3.20
2008,10,08,02,43,1.60
2008,10,08,02,44,0.00
2008,10,08,02,45,0.00
2008,10,08,02,46,4.80
2008,10,08,02,47,4.80
2008,10,08,02,48,3.20
2008,10,08,02,49,0.00
2008,10,08,02,50,0.00
2008,10,08,02,51,1.60
2008,10,08,02,52,1.60
2008,10,08,02,53,0.00
2008,10,08,02,54,1.60
2008,10,08,02,55,1.60
2008,10,08,02,56,0.00
2008,10,08,02,57,1.60
2008,10,08,02,58,1.60
2008,10,08,02,59,4.80
2008,10,08,03,00,1.60
2008,10,08,03,01,9.60
2008,10,08,03,02,8.10
2008,10,08,03,03,4.80
2008,10,08,03,04,3.20
2008,10,08,03,05,8.10
2008,10,08,03,06,8.10
2008,10,08,03,07,4.80
2008,10,08,03,08,6.40
2008,10,08,03,09,8.10
2008,10,08,03,10,3.20
2008,10,08,03,11,4.80
2008,10,08,03,12,3.20
2008,10,08,03,13,3.20
2008,10,08,03,14,1.60
2008,10,08,03,15,1.60
2008,10,08,03,16,4.80
2008,10,08,03,17,1.60
2008,10,08,03,18,3.20
2008,10,08,03,19,4.80
2008,10,08,03,20,3.20
2008,10,08,03,21,4.80
2008,10,08,03,22,4.80
2008,10,08,03,23,1.60
2008,10,08,03,24,1.60
2008,10,08,03,25,3.20
2008,10,08,03,26,1.60
2008,10,08,03,27,1.60
2008,10,08,03,28,4.80
2008,10,08,03,29,4.80
2008,10,08,03,30,3.20
2008,10,08,03,31,0.00
2008,10,08,03,32,1.60
2008,10,08,03,33,3.20
2008,10,08,03,34,3.20
2008,10,08,03,35,1.60
2008,10,08,03,36,3.20
2008,10,08,03,37,1.60
2008,10,08,03,38,1.60
2008,10,08,03,39,1.60
2008,10,08,03,40,0.00
2008,10,08,03,41,1.60
2008,10,08,03,42,3.20
2008,10,08,03,43,1.60
2008,10,08,03,44,3.20
2008,10,08,03,45,1.60
2008,10,08,03,46,1.60
2008,10,08,03,47,4.80
2008,10,08,03,48,4.80
2008,10,08,03,49,4.80
2008,10,08,03,50,1.60
2008,10,08,03,51,1.60
2008,10,08,03,52,1.60
2008,10,08,03,53,1.60
2008,10,08,03,54,1.60
2008,10,08,03,55,1.60
2008,10,08,03,56,1.60
2008,10,08,03,57,1.60
2008,10,08,03,58,3.20
2008,10,08,03,59,4.80
2008,10,08,04,00,1.60
2008,10,08,04,01,1.60
2008,10,08,04,02,1.60
2008,10,08,04,03,0.00
2008,10,08,04,04,0.00
2008,10,08,04,05,3.20
2008,10,08,04,06,1.60
2008,10,08,04,07,0.00
2008,10,08,04,08,1.60
2008,10,08,04,09,1.60
2008,10,08,04,10,3.20
2008,10,08,04,11,3.20
2008,10,08,04,12,4.80
2008,10,08,04,13,4.80
2008,10,08,04,14,3.20
2008,10,08,04,15,1.60
2008,10,08,04,16,3.20
2008,10,08,04,17,3.20
2008,10,08,04,18,3.20
2008,10,08,04,19,1.60
2008,10,08,04,20,3.20
2008,10,08,04,21,1.60
2008,10,08,04,22,0.00
2008,10,08,04,23,1.60
2008,10,08,04,24,0.00
2008,10,08,04,25,0.00
2008,10,08,04,26,0.00
2008,10,08,04,27,0.00
2008,10,08,04,28,0.00
2008,10,08,04,29,0.00
2008,10,08,04,30,3.20
2008,10,08,04,31,1.60
2008,10,08,04,32,1.60
2008,10,08,04,33,3.20
2008,10,08,04,34,3.20
2008,10,08,04,35,3.20
2008,10,08,04,36,1.60
2008,10,08,04,37,1.60
2008,10,08,04,38,1.60
2008,10,08,04,39,1.60
2008,10,08,04,40,1.60
2008,10,08,04,41,1.60
2008,10,08,04,42,3.20
2008,10,08,04,43,3.20
2008,10,08,04,44,3.20
2008,10,08,04,45,3.20
2008,10,08,04,46,1.60
2008,10,08,04,47,3.20
2008,10,08,04,48,1.60
2008,10,08,04,49,3.20
2008,10,08,04,50,3.20
2008,10,08,04,51,4.80
2008,10,08,04,52,6.40
2008,10,08,04,53,4.80
2008,10,08,04,54,3.20
2008,10,08,04,55,3.20
2008,10,08,04,56,3.20
2008,10,08,04,57,1.60
2008,10,08,04,58,3.20
2008,10,08,04,59,3.20
2008,10,08,05,00,3.20
2008,10,08,05,01,3.20
2008,10,08,05,02,4.80
2008,10,08,05,03,3.20
2008,10,08,05,04,1.60
2008,10,08,05,05,3.20
2008,10,08,05,06,1.60
2008,10,08,05,07,0.00
2008,10,08,05,08,0.00
2008,10,08,05,09,0.00
2008,10,08,05,10,0.00
2008,10,08,05,11,0.00
2008,10,08,05,12,0.00
2008,10,08,05,13,0.00
2008,10,08,05,14,0.00
2008,10,08,05,15,0.00
2008,10,08,05,16,0.00
2008,10,08,05,17,0.00
2008,10,08,05,18,0.00
2008,10,08,05,19,0.00
2008,10,08,05,20,0.00
2008,10,08,05,21,0.00
2008,10,08,05,22,0.00
2008,10,08,05,23,0.00
2008,10,08,05,24,0.00
2008,10,08,05,25,0.00
2008,10,08,05,26,0.00
2008,10,08,05,27,0.00
2008,10,08,05,28,0.00
2008,10,08,05,29,0.00
2008,10,08,05,30,0.00
2008,10,08,05,31,0.00
2008,10,08,05,32,0.00
2008,10,08,05,33,0.00
2008,10,08,05,34,1.60
2008,10,08,05,35,0.00
2008,10,08,05,36,1.60
2008,10,08,05,37,0.00
2008,10,08,05,38,1.60
2008,10,08,05,39,1.60
2008,10,08,05,40,0.00
2008,10,08,05,41,0.00
2008,10,08,05,42,0.00
2008,10,08,05,43,0.00
2008,10,08,05,44,1.60
2008,10,08,05,45,0.00
2008,10,08,05,46,1.60
2008,10,08,05,47,0.00
2008,10,08,05,48,0.00
2008,10,08,05,49,0.00
2008,10,08,05,50,0.00
2008,10,08,05,51,0.00
2008,10,08,05,52,1.60
2008,10,08,05,53,0.00
2008,10,08,05,54,3.20
2008,10,08,05,55,3.20
2008,10,08,05,56,1.60
2008,10,08,05,57,1.60
2008,10,08,05,58,1.60
2008,10,08,05,59,1.60
2008,10,08,06,00,3.20
2008,10,08,06,01,1.60
2008,10,08,06,02,1.60
2008,10,08,06,03,1.60
2008,10,08,06,04,1.60
2008,10,08,06,05,0.00
2008,10,08,06,06,0.00
2008,10,08,06,07,1.60
2008,10,08,06,08,3.20
2008,10,08,06,09,4.80
2008,10,08,06,10,4.80
2008,10,08,06,11,1.60
2008,10,08,06,12,4.80
2008,10,08,06,13,4.80
2008,10,08,06,14,3.20
2008,10,08,06,15,3.20
2008,10,08,06,16,3.20
2008,10,08,06,17,3.20
2008,10,08,06,18,3.20
2008,10,08,06,19,4.80
2008,10,08,06,20,3.20
2008,10,08,06,21,3.20
2008,10,08,06,22,3.20
2008,10,08,06,23,3.20
2008,10,08,06,24,4.80
2008,10,08,06,25,4.80
2008,10,08,06,26,4.80
2008,10,08,06,27,4.80
2008,10,08,06,28,3.20
2008,10,08,06,29,4.80
2008,10,08,06,30,3.20
2008,10,08,06,31,4.80
2008,10,08,06,32,6.40
2008,10,08,06,33,4.80
2008,10,08,06,34,8.10
2008,10,08,06,35,6.40
2008,10,08,06,36,6.40
2008,10,08,06,37,6.40
2008,10,08,06,38,6.40
2008,10,08,06,39,8.10
2008,10,08,06,40,6.40
2008,10,08,06,41,4.80
2008,10,08,06,42,6.40
2008,10,08,06,43,4.80
2008,10,08,06,44,4.80
2008,10,08,06,45,4.80
2008,10,08,06,46,8.10
2008,10,08,06,47,4.80
2008,10,08,06,48,4.80
2008,10,08,06,49,1.60
2008,10,08,06,50,4.80
2008,10,08,06,51,3.20
2008,10,08,06,52,3.20
2008,10,08,06,53,4.80
2008,10,08,06,54,6.40
2008,10,08,06,55,4.80
2008,10,08,06,56,4.80
2008,10,08,06,57,6.40
2008,10,08,06,58,6.40
2008,10,08,06,59,4.80
2008,10,08,07,00,6.40
2008,10,08,07,01,4.80
2008,10,08,07,02,4.80
2008,10,08,07,03,6.40
2008,10,08,07,04,6.40
2008,10,08,07,05,1.60
2008,10,08,07,06,4.80
2008,10,08,07,07,4.80
2008,10,08,07,08,4.80
2008,10,08,07,09,4.80
2008,10,08,07,10,1.60
2008,10,08,07,11,3.20
2008,10,08,07,12,3.20
2008,10,08,07,13,3.20
2008,10,08,07,14,1.60
2008,10,08,07,15,1.60
2008,10,08,07,16,0.00
2008,10,08,07,17,3.20
2008,10,08,07,18,3.20
2008,10,08,07,19,3.20
2008,10,08,07,20,4.80
2008,10,08,07,21,6.40
2008,10,08,07,22,6.40
2008,10,08,07,23,8.10
2008,10,08,07,24,3.20
2008,10,08,07,25,6.40
2008,10,08,07,26,6.40
2008,10,08,07,27,3.20
2008,10,08,07,28,3.20
2008,10,08,07,29,3.20
2008,10,08,07,30,4.80
2008,10,08,07,31,3.20
2008,10,08,07,32,1.60
2008,10,08,07,33,0.00
2008,10,08,07,34,1.60
2008,10,08,07,35,1.60
2008,10,08,07,36,1.60
2008,10,08,07,37,3.20
2008,10,08,07,38,1.60
2008,10,08,07,39,3.20
2008,10,08,07,40,3.20
2008,10,08,07,41,1.60
2008,10,08,07,42,1.60
2008,10,08,07,43,1.60
2008,10,08,07,44,1.60
2008,10,08,07,45,1.60
2008,10,08,07,46,1.60
2008,10,08,07,47,1.60
2008,10,08,07,48,1.60
2008,10,08,07,49,3.20
2008,10,08,07,50,3.20
2008,10,08,07,51,1.60
2008,10,08,07,52,3.20
2008,10,08,07,53,3.20
2008,10,08,07,54,1.60
2008,10,08,07,55,1.60
2008,10,08,07,56,0.00
2008,10,08,07,57,3.20
2008,10,08,07,58,1.60
2008,10,08,07,59,0.00
2008,10,08,08,00,1.60
2008,10,08,08,01,0.00
2008,10,08,08,02,1.60
2008,10,08,08,03,1.60
2008,10,08,08,04,0.00
2008,10,08,08,05,0.00
2008,10,08,08,06,0.00
2008,10,08,08,07,1.60
2008,10,08,08,08,0.00
2008,10,08,08,09,0.00
2008,10,08,08,10,1.60
2008,10,08,08,11,1.60
2008,10,08,08,12,3.20
2008,10,08,08,13,3.20
2008,10,08,08,14,0.00
2008,10,08,08,15,1.60
2008,10,08,08,16,0.00
2008,10,08,08,17,0.00
2008,10,08,08,18,0.00
2008,10,08,08,19,0.00
2008,10,08,08,20,0.00
2008,10,08,08,21,0.00
2008,10,08,08,22,0.00
2008,10,08,08,23,0.00
2008,10,08,08,24,1.60
2008,10,08,08,25,0.00
2008,10,08,08,26,1.60
2008,10,08,08,27,1.60
2008,10,08,08,28,1.60
2008,10,08,08,29,0.00
2008,10,08,08,30,0.00
2008,10,08,08,31,0.00
2008,10,08,08,32,0.00
2008,10,08,08,33,1.60
2008,10,08,08,34,0.00
2008,10,08,08,35,0.00
2008,10,08,08,36,0.00
2008,10,08,08,37,0.00
2008,10,08,08,38,1.60
2008,10,08,08,39,3.20
2008,10,08,08,40,1.60
2008,10,08,08,41,1.60
2008,10,08,08,42,3.20
2008,10,08,08,43,3.20
2008,10,08,08,44,1.60
2008,10,08,08,45,1.60
2008,10,08,08,46,1.60
2008,10,08,08,47,1.60
2008,10,08,08,48,0.00
2008,10,08,08,49,0.00
2008,10,08,08,50,0.00
2008,10,08,08,51,0.00
2008,10,08,08,52,0.00
2008,10,08,08,53,0.00
2008,10,08,08,54,0.00
2008,10,08,08,55,0.00
2008,10,08,08,56,0.00
2008,10,08,08,57,0.00
2008,10,08,08,58,0.00
2008,10,08,08,59,0.00
2008,10,08,09,00,0.00
2008,10,08,09,01,0.00
2008,10,08,09,02,0.00
2008,10,08,09,03,0.00
2008,10,08,09,04,0.00
2008,10,08,09,05,0.00
2008,10,08,09,06,0.00
2008,10,08,09,07,0.00
2008,10,08,09,08,0.00
2008,10,08,09,09,0.00
2008,10,08,09,10,3.20
2008,10,08,09,11,0.00
2008,10,08,09,12,3.20
2008,10,08,09,13,1.60
2008,10,08,09,14,1.60
2008,10,08,09,15,3.20
2008,10,08,09,16,3.20
2008,10,08,09,17,1.60
2008,10,08,09,18,3.20
2008,10,08,09,19,1.60
2008,10,08,09,20,3.20
2008,10,08,09,21,4.80
2008,10,08,09,22,3.20
2008,10,08,09,23,3.20
2008,10,08,09,24,1.60
2008,10,08,09,25,3.20
2008,10,08,09,26,4.80
2008,10,08,09,27,4.80
2008,10,08,09,28,4.80
2008,10,08,09,29,0.00
2008,10,08,09,30,4.80
2008,10,08,09,31,3.20
2008,10,08,09,32,6.40
2008,10,08,09,33,6.40
2008,10,08,09,34,1.60
2008,10,08,09,35,1.60
2008,10,08,09,36,1.60
2008,10,08,09,37,6.40
2008,10,08,09,38,4.80
2008,10,08,09,39,6.40
2008,10,08,09,40,8.10
2008,10,08,09,41,8.10
2008,10,08,09,42,9.60
2008,10,08,09,43,9.60
2008,10,08,09,44,8.10
2008,10,08,09,45,8.10
2008,10,08,09,46,6.40
2008,10,08,09,47,9.60
2008,10,08,09,48,11.30
2008,10,08,09,49,11.30
2008,10,08,09,50,11.30
2008,10,08,09,51,8.10
2008,10,08,09,52,8.10
2008,10,08,09,53,6.40
2008,10,08,09,54,4.80
2008,10,08,09,55,6.40
2008,10,08,09,56,14.50
2008,10,08,09,57,6.40
2008,10,08,09,58,6.40
2008,10,08,09,59,6.40
2008,10,08,10,00,6.40
2008,10,08,10,01,6.40
2008,10,08,10,02,6.40
2008,10,08,10,03,6.40
2008,10,08,10,04,8.10
2008,10,08,10,05,8.10
2008,10,08,10,06,6.40
2008,10,08,10,07,8.10
2008,10,08,10,08,4.80
2008,10,08,10,09,11.30
2008,10,08,10,10,9.60
2008,10,08,10,11,9.60
2008,10,08,10,12,9.60
2008,10,08,10,13,6.40
2008,10,08,10,14,9.60
2008,10,08,10,15,8.10
2008,10,08,10,16,8.10
2008,10,08,10,17,4.80
2008,10,08,10,18,8.10
2008,10,08,10,19,6.40
2008,10,08,10,20,6.40
2008,10,08,10,21,6.40
2008,10,08,10,22,12.90
2008,10,08,10,23,9.60
2008,10,08,10,24,8.10
2008,10,08,10,25,8.10
2008,10,08,10,26,8.10
2008,10,08,10,27,3.20
2008,10,08,10,28,6.40
2008,10,08,10,29,4.80
2008,10,08,10,30,8.10
2008,10,08,10,31,8.10
2008,10,08,10,32,8.10
2008,10,08,10,33,6.40
2008,10,08,10,34,9.60
2008,10,08,10,35,4.80
2008,10,08,10,36,4.80
2008,10,08,10,37,4.80
2008,10,08,10,38,11.30
2008,10,08,10,39,8.10
2008,10,08,10,40,9.60
2008,10,08,10,41,9.60
2008,10,08,10,42,3.20
2008,10,08,10,43,4.80
2008,10,08,10,44,6.40
2008,10,08,10,45,6.40
2008,10,08,10,46,4.80
2008,10,08,10,47,8.10
2008,10,08,10,48,8.10
2008,10,08,10,49,4.80
2008,10,08,10,50,6.40
2008,10,08,10,51,4.80
2008,10,08,10,52,9.60
2008,10,08,10,53,4.80
2008,10,08,10,54,4.80
2008,10,08,10,55,3.20
2008,10,08,10,56,4.80
2008,10,08,10,57,6.40
2008,10,08,10,58,8.10
2008,10,08,10,59,6.40
2008,10,08,11,00,6.40
2008,10,08,11,01,4.80
2008,10,08,11,02,6.40
2008,10,08,11,03,8.10
2008,10,08,11,04,11.30
2008,10,08,11,05,11.30
2008,10,08,11,06,8.10
2008,10,08,11,07,8.10
2008,10,08,11,08,4.80
2008,10,08,11,09,4.80
2008,10,08,11,10,6.40
2008,10,08,11,11,11.30
2008,10,08,11,12,8.10
2008,10,08,11,13,6.40
2008,10,08,11,14,11.30
2008,10,08,11,15,9.60
2008,10,08,11,16,8.10
2008,10,08,11,17,14.50
2008,10,08,11,18,8.10
2008,10,08,11,19,8.10
2008,10,08,11,20,9.60
2008,10,08,11,21,9.60
2008,10,08,11,22,9.60
2008,10,08,11,23,6.40
2008,10,08,11,24,11.30
2008,10,08,11,25,6.40
2008,10,08,11,26,6.40
2008,10,08,11,27,11.30
2008,10,08,11,28,8.10
2008,10,08,11,29,9.60
2008,10,08,11,30,9.60
2008,10,08,11,31,8.10
2008,10,08,11,32,11.30
2008,10,08,11,33,11.30
2008,10,08,11,34,6.40
2008,10,08,11,35,8.10
2008,10,08,11,36,9.60
2008,10,08,11,37,8.10
2008,10,08,11,38,6.40
2008,10,08,11,39,6.40
2008,10,08,11,40,9.60
2008,10,08,11,41,9.60
2008,10,08,11,42,9.60
2008,10,08,11,43,11.30
2008,10,08,11,44,8.10
2008,10,08,11,45,3.20
2008,10,08,11,46,6.40
2008,10,08,11,47,9.60
2008,10,08,11,48,6.40
2008,10,08,11,49,8.10
2008,10,08,11,50,14.50
2008,10,08,11,51,8.10
2008,10,08,11,52,9.60
2008,10,08,11,53,4.80
2008,10,08,11,54,8.10
2008,10,08,11,55,9.60
2008,10,08,11,56,8.10
2008,10,08,11,57,6.40
2008,10,08,11,58,6.40
2008,10,08,11,59,8.10
2008,10,08,12,00,14.50
2008,10,08,12,01,14.50
2008,10,08,12,02,8.10
2008,10,08,12,03,8.10
2008,10,08,12,04,8.10
2008,10,08,12,05,6.40
2008,10,08,12,06,9.60
2008,10,08,12,07,8.10
2008,10,08,12,08,11.30
2008,10,08,12,09,6.40
2008,10,08,12,10,6.40
2008,10,08,12,11,9.60
2008,10,08,12,12,9.60
2008,10,08,12,13,6.40
2008,10,08,12,14,9.60
2008,10,08,12,15,4.80
2008,10,08,12,16,8.10
2008,10,08,12,17,8.10
2008,10,08,12,18,4.80
2008,10,08,12,19,8.10
2008,10,08,12,20,11.30
2008,10,08,12,21,14.50
2008,10,08,12,22,9.60
2008,10,08,12,23,9.60
2008,10,08,12,24,8.10
2008,10,08,12,25,11.30
2008,10,08,12,26,9.60
2008,10,08,12,27,6.40
2008,10,08,12,28,9.60
2008,10,08,12,29,11.30
2008,10,08,12,30,8.10
2008,10,08,12,31,9.60
2008,10,08,12,32,11.30
2008,10,08,12,33,11.30
2008,10,08,12,34,11.30
2008,10,08,12,35,8.10
2008,10,08,12,36,8.10
2008,10,08,12,37,11.30
2008,10,08,12,38,6.40
2008,10,08,12,39,4.80
2008,10,08,12,40,14.50
2008,10,08,12,41,11.30
2008,10,08,12,42,16.10
2008,10,08,12,43,11.30
2008,10,08,12,44,9.60
2008,10,08,12,45,8.10
2008,10,08,12,46,8.10
2008,10,08,12,47,6.40
2008,10,08,12,48,9.60
2008,10,08,12,49,6.40
2008,10,08,12,50,6.40
2008,10,08,12,51,6.40
2008,10,08,12,52,8.10
2008,10,08,12,53,6.40
2008,10,08,12,54,6.40
2008,10,08,12,55,6.40
2008,10,08,12,56,6.40
2008,10,08,12,57,8.10
2008,10,08,12,58,11.30
2008,10,08,12,59,6.40
2008,10,08,13,00,8.10
2008,10,08,13,01,9.60
2008,10,08,13,02,9.60
2008,10,08,13,03,8.10
2008,10,08,13,04,9.60
2008,10,08,13,05,9.60
2008,10,08,13,06,14.50
2008,10,08,13,07,4.80
2008,10,08,13,08,6.40
2008,10,08,13,09,6.40
2008,10,08,13,10,8.10
2008,10,08,13,11,6.40
2008,10,08,13,12,6.40
2008,10,08,13,13,9.60
2008,10,08,13,14,11.30
2008,10,08,13,15,11.30
2008,10,08,13,16,8.10
2008,10,08,13,17,6.40
2008,10,08,13,18,8.10
2008,10,08,13,19,0.00
2008,10,08,13,20,8.10
2008,10,08,13,21,9.60
2008,10,08,13,22,6.40
2008,10,08,13,23,8.10
2008,10,08,13,24,8.10
2008,10,08,13,25,14.50
2008,10,08,13,26,11.30
2008,10,08,13,27,9.60
2008,10,08,13,28,8.10
2008,10,08,13,29,9.60
2008,10,08,13,30,9.60
2008,10,08,13,31,11.30
2008,10,08,13,32,14.50
2008,10,08,13,33,11.30
2008,10,08,13,34,12.90
2008,10,08,13,35,9.60
2008,10,08,13,36,9.60
2008,10,08,13,37,11.30
2008,10,08,13,38,9.60
2008,10,08,13,39,9.60
2008,10,08,13,40,8.10
2008,10,08,13,41,4.80
2008,10,08,13,42,8.10
2008,10,08,13,43,8.10
2008,10,08,13,44,9.60
2008,10,08,13,45,9.60
2008,10,08,13,46,9.60
2008,10,08,13,47,8.10
2008,10,08,13,48,8.10
2008,10,08,13,49,12.90
2008,10,08,13,50,11.30
2008,10,08,13,51,4.80
2008,10,08,13,52,8.10
2008,10,08,13,53,9.60
2008,10,08,13,54,11.30
2008,10,08,13,55,16.10
2008,10,08,13,56,14.50
2008,10,08,13,57,14.50
2008,10,08,13,58,9.60
2008,10,08,13,59,9.60
2008,10,08,14,00,11.30
2008,10,08,14,01,11.30
2008,10,08,14,02,11.30
2008,10,08,14,03,9.60
2008,10,08,14,04,8.10
2008,10,08,14,05,9.60
2008,10,08,14,06,8.10
2008,10,08,14,07,4.80
2008,10,08,14,08,6.40
2008,10,08,14,09,8.10
2008,10,08,14,10,11.30
2008,10,08,14,11,14.50
2008,10,08,14,12,14.50
2008,10,08,14,13,4.80
2008,10,08,14,14,3.20
2008,10,08,14,15,4.80
2008,10,08,14,16,8.10
2008,10,08,14,17,4.80
2008,10,08,14,18,8.10
2008,10,08,14,19,4.80
2008,10,08,14,20,9.60
2008,10,08,14,21,9.60
2008,10,08,14,22,8.10
2008,10,08,14,23,6.40
2008,10,08,14,24,6.40
2008,10,08,14,25,4.80
2008,10,08,14,26,6.40
2008,10,08,14,27,4.80
2008,10,08,14,28,6.40
2008,10,08,14,29,6.40
2008,10,08,14,30,11.30
2008,10,08,14,31,6.40
2008,10,08,14,32,8.10
2008,10,08,14,33,11.30
2008,10,08,14,34,8.10
2008,10,08,14,35,9.60
2008,10,08,14,36,11.30
2008,10,08,14,37,8.10
2008,10,08,14,38,6.40
2008,10,08,14,39,8.10
2008,10,08,14,40,6.40
2008,10,08,14,41,6.40
2008,10,08,14,42,14.50
2008,10,08,14,43,8.10
2008,10,08,14,44,9.60
2008,10,08,14,45,4.80
2008,10,08,14,46,9.60
2008,10,08,14,47,3.20
2008,10,08,14,48,4.80
2008,10,08,14,49,8.10
2008,10,08,14,50,9.60
2008,10,08,14,51,4.80
2008,10,08,14,52,8.10
2008,10,08,14,53,8.10
2008,10,08,14,54,9.60
2008,10,08,14,55,3.20
2008,10,08,14,56,8.10
2008,10,08,14,57,8.10
2008,10,08,14,58,6.40
2008,10,08,14,59,9.60
2008,10,08,15,00,9.60
2008,10,08,15,01,8.10
2008,10,08,15,02,8.10
2008,10,08,15,03,6.40
2008,10,08,15,04,9.60
2008,10,08,15,05,6.40
2008,10,08,15,06,6.40
2008,10,08,15,07,9.60
2008,10,08,15,08,8.10
2008,10,08,15,09,6.40
2008,10,08,15,10,4.80
2008,10,08,15,11,8.10
2008,10,08,15,12,9.60
2008,10,08,15,13,8.10
2008,10,08,15,14,8.10
2008,10,08,15,15,3.20
2008,10,08,15,16,3.20
2008,10,08,15,17,8.10
2008,10,08,15,18,8.10
2008,10,08,15,19,8.10
2008,10,08,15,20,6.40
2008,10,08,15,21,6.40
2008,10,08,15,22,6.40
2008,10,08,15,23,3.20
2008,10,08,15,24,4.80
2008,10,08,15,25,8.10
2008,10,08,15,26,6.40
2008,10,08,15,27,4.80
2008,10,08,15,28,4.80
2008,10,08,15,29,4.80
2008,10,08,15,30,4.80
2008,10,08,15,31,6.40
2008,10,08,15,32,6.40
2008,10,08,15,33,1.60
2008,10,08,15,34,4.80
2008,10,08,15,35,1.60
2008,10,08,15,36,8.10
2008,10,08,15,37,6.40
2008,10,08,15,38,4.80
2008,10,08,15,39,3.20
2008,10,08,15,40,3.20
2008,10,08,15,41,8.10
2008,10,08,15,42,6.40
2008,10,08,15,43,8.10
2008,10,08,15,44,8.10
2008,10,08,15,45,4.80
2008,10,08,15,46,6.40
2008,10,08,15,47,4.80
2008,10,08,15,48,6.40
2008,10,08,15,49,3.20
2008,10,08,15,50,4.80
2008,10,08,15,51,4.80
2008,10,08,15,52,4.80
2008,10,08,15,53,4.80
2008,10,08,15,54,3.20
2008,10,08,15,55,1.60
2008,10,08,15,56,3.20
2008,10,08,15,57,1.60
2008,10,08,15,58,0.00
2008,10,08,15,59,1.60
2008,10,08,16,00,3.20
2008,10,08,16,01,1.60
2008,10,08,16,02,1.60
2008,10,08,16,03,1.60
2008,10,08,16,04,3.20
2008,10,08,16,05,0.00
2008,10,08,16,06,1.60
2008,10,08,16,07,3.20
2008,10,08,16,08,3.20
2008,10,08,16,09,3.20
2008,10,08,16,10,4.80
2008,10,08,16,11,1.60
2008,10,08,16,12,4.80
2008,10,08,16,13,4.80
2008,10,08,16,14,4.80
2008,10,08,16,15,4.80
2008,10,08,16,16,4.80
2008,10,08,16,17,3.20
2008,10,08,16,18,1.60
2008,10,08,16,19,0.00
2008,10,08,16,20,0.00
2008,10,08,16,21,0.00
2008,10,08,16,22,1.60
2008,10,08,16,23,1.60
2008,10,08,16,24,1.60
2008,10,08,16,25,0.00
2008,10,08,16,26,1.60
2008,10,08,16,27,0.00
2008,10,08,16,28,0.00
2008,10,08,16,29,0.00
2008,10,08,16,30,3.20
2008,10,08,16,31,1.60
2008,10,08,16,32,1.60
2008,10,08,16,33,1.60
2008,10,08,16,34,1.60
2008,10,08,16,35,1.60
2008,10,08,16,36,0.00
2008,10,08,16,37,0.00
2008,10,08,16,38,0.00
2008,10,08,16,39,1.60
2008,10,08,16,40,1.60
2008,10,08,16,41,0.00
2008,10,08,16,42,0.00
2008,10,08,16,43,0.00
2008,10,08,16,44,0.00
2008,10,08,16,45,0.00
2008,10,08,16,46,0.00
2008,10,08,16,47,0.00
2008,10,08,16,48,0.00
2008,10,08,16,49,0.00
2008,10,08,16,50,1.60
2008,10,08,16,51,3.20
2008,10,08,16,52,3.20
2008,10,08,16,53,0.00
2008,10,08,16,54,1.60
2008,10,08,16,55,4.80
2008,10,08,16,56,3.20
2008,10,08,16,57,1.60
2008,10,08,16,58,3.20
2008,10,08,16,59,3.20
2008,10,08,17,00,3.20
2008,10,08,17,01,0.00
2008,10,08,17,02,3.20
2008,10,08,17,03,1.60
2008,10,08,17,04,1.60
2008,10,08,17,05,0.00
2008,10,08,17,06,3.20
2008,10,08,17,07,3.20
2008,10,08,17,08,1.60
2008,10,08,17,09,1.60
2008,10,08,17,10,0.00
2008,10,08,17,11,1.60
2008,10,08,17,12,1.60
2008,10,08,17,13,1.60
2008,10,08,17,14,1.60
2008,10,08,17,15,1.60
2008,10,08,17,16,1.60
2008,10,08,17,17,0.00
2008,10,08,17,18,0.00
2008,10,08,17,19,0.00
2008,10,08,17,20,0.00
2008,10,08,17,21,1.60
2008,10,08,17,22,0.00
2008,10,08,17,23,3.20
2008,10,08,17,24,3.20
2008,10,08,17,25,1.60
2008,10,08,17,26,1.60
2008,10,08,17,27,0.00
2008,10,08,17,28,1.60
2008,10,08,17,29,0.00
2008,10,08,17,30,0.00
2008,10,08,17,31,0.00
2008,10,08,17,32,0.00
2008,10,08,17,33,0.00
2008,10,08,17,34,0.00
2008,10,08,17,35,0.00
2008,10,08,17,36,0.00
2008,10,08,17,37,0.00
2008,10,08,17,38,0.00
2008,10,08,17,39,0.00
2008,10,08,17,40,0.00
2008,10,08,17,41,0.00
2008,10,08,17,42,0.00
2008,10,08,17,43,0.00
2008,10,08,17,44,0.00
2008,10,08,17,45,0.00
2008,10,08,17,46,0.00
2008,10,08,17,47,0.00
2008,10,08,17,48,0.00
2008,10,08,17,49,0.00
2008,10,08,17,50,0.00
2008,10,08,17,51,0.00
2008,10,08,17,52,0.00
2008,10,08,17,53,0.00
2008,10,08,17,54,0.00
2008,10,08,17,55,0.00
2008,10,08,17,56,0.00
2008,10,08,17,57,1.60
2008,10,08,17,58,1.60
2008,10,08,17,59,1.60
2008,10,08,18,00,3.20
2008,10,08,18,01,1.60
2008,10,08,18,02,1.60
2008,10,08,18,03,0.00